This demonstration page uses our WeatherBlox Daily Observations layout. Learn more.

Left ArrowRight Arrow

38.20091, -84.87328

Hourly Observations for July 26, 2018

Temp ( °F °C ) Dew Point ( °F °C ) Humidity (%) Winds ( mph kmh ) Pressure ( in mb ) Visibility ( mi km ) Precip ( " mm )
12:53 am 00:53 Partly Cloudy 70 21.1 66 18.9 87 87 Calm 29.95 1014 10 16 0.00 0.00
1:53 am 01:53 Mostly Cloudy 70 21.1 66 18.9 87 87 Calm 29.94 1014 10 16 0.00 0.00
2:53 am 02:53 Clear 69 20.6 66 18.9 90 90 Calm 29.93 1014 10 16 0.00 0.00
3:53 am 03:53 Clear 69 20.6 66 18.9 90 90 Calm 29.92 1013 10 16 0.00 0.00
4:53 am 04:53 Clear 68 20 65 18.3 90 90 Calm 29.94 1014 9 14 0.00 0.00
5:53 am 05:53 Clear 67 19.4 65 18.3 93 93 Calm 29.94 1014 8 13 0.00 0.00
6:53 am 06:53 Sunny with Mist and Fog 67 19.4 65 18.3 93 93 Calm 29.96 1014 5 8 0.00 0.00
7:53 am 07:53 Sunny 69 20.6 66 18.9 90 90 Calm 29.96 1015 9 14 0.00 0.00
8:53 am 08:53 Sunny 74 23.3 67 19.4 79 79 Calm 29.98 1015 10 16 0.00 0.00
9:53 am 09:53 Sunny 77 25 68 20 74 74 Calm 29.98 1015 10 16 0.00 0.00
10:53 am 10:53 Sunny 80 26.7 69 20.6 69 69 SSW 7 11 29.98 1015 10 16 0.00 0.00
11:53 am 11:53 Mostly Sunny 84 28.9 69 20.6 61 61 W 7 11 29.98 1015 10 16 0.00 0.00
12:53 pm 12:53 Mostly Sunny 84 28.9 67 19.4 57 57 W 8 13 29.98 1015 10 16 0.00 0.00
1:53 pm 13:53 Partly Cloudy 85 29.4 68 20 57 57 VRB 7 11 29.97 1015 10 16 0.00 0.00
2:53 pm 14:53 Sunny 86 30 65 18.3 49 49 WSW 8 13 29.96 1014 10 16 0.00 0.00
3:53 pm 15:53 Mostly Sunny 86 30 65 18.3 49 49 VRB 3 6 29.94 1014 10 16 0.00 0.00
4:53 pm 16:53 Mostly Sunny 86 30 65 18.3 49 49 VRB 5 7 29.94 1014 10 16 0.00 0.00
5:53 pm 17:53 Sunny 85 29.4 66 18.9 53 53 SW 7 11 29.94 1014 10 16 0.00 0.00
6:53 pm 18:53 Sunny 83 28.3 66 18.9 57 57 WSW 6 9 29.94 1014 10 16 0.00 0.00
7:53 pm 19:53 Sunny 80 26.7 68 20 67 67 SW 6 9 29.94 1014 10 16 0.00 0.00
8:53 pm 20:53 Sunny 78 25.6 66 18.9 67 67 WSW 5 7 29.95 1014 10 16 0.00 0.00
9:53 pm 21:53 Clear 77 25 67 19.4 71 71 WSW 5 7 29.96 1015 10 16 0.00 0.00
10:53 pm 22:53 Clear 74 23.3 67 19.4 79 79 SSW 6 9 29.96 1015 10 16 0.00 0.00
11:53 pm 23:53 Partly Cloudy 73 22.8 67 19.4 81 81 WSW 3 6 29.96 1014 10 16 0.00 0.00

Powered by AerisWeather